Location: Brahman Valley
(40.6513°N, 111.8855°W)
Time: 20:39:37
(UTC+00:00)

Vanguard 2 - Pass Details

Date: 13 May 2021
Orbit: 552 x 2937 km, 32.9° (Epoch: 14 June)

Event Time Altitude Azimuth Distance (km) Brightness Sun altitude
Rises 20:35:51 0° 275° (W) 6,628 12.5 63.1°
Reaches altitude 10° 20:42:47 10° 258° (WSW) 5,752 12.5 62.2°
Maximum altitude 20:51:49 16° 227° (SW) 5,165 12.5 61.0°
Drops below altitude 10° 21:00:28 10° 195° (SSW) 5,409 12.4 59.8°
Sets 21:06:46 0° 176° (S) 6,057 12.3 58.8°
